Kandahar, Afghanistan

11:17 PM +0430 on May 25, 2017 (GMT +0430)
Kandahar

Weather History for OAKN - September, 2014

Change the Weather History Date:

Tuesday, September 2, 2014

  Actual Average Record
Temperature  
Mean Temperature 83 °F -  
Max Temperature 98 °F 92 °F - ()
Min Temperature 68 °F 55 °F - ()
Cooling Degree Days 18    
Growing Degree Days 33 (Base 50)    
Moisture  
Dew Point 25 °F    
Average Humidity 12    
Maximum Humidity 22    
Minimum Humidity 7    
Precipitation  
Precipitation 5.86 in 0.00 in - ()
Sea Level Pressure  
Sea Level Pressure 29.75 in    
Wind  
Wind Speed 5 mph ()    
Max Wind Speed 13 mph    
Max Gust Speed -    
Visibility 5.9 miles    
Events      
T = Trace of Precipitation, MM = Missing Value Source: Averaged Metar Reports

Daily Weather History Graph

Daily Weather History Graph

Search for Another Location

Airport or City:

Trip Planner

Search our weather history database for the weather conditions in past years. The results will help you decide how hot, cold, wet, or windy it might be!

Date:

Astronomy

Sep. 02, 2014 Rise Set
Actual Time 5:42 AM +0430 6:29 PM +0430
Civil Twilight 5:17 AM +0430 6:54 PM +0430
Nautical Twilight 4:48 AM +0430 7:23 PM +0430
Astronomical Twilight 4:18 AM +0430 7:53 PM +0430
Moon 12:35 PM +0430 (9/2) 11:26 PM +0430 (9/2)
Length of Visible Light 13h 36m
Length of Day
12h 46m
Waxing Crescent, 49% of the Moon is Illuminated
Sep 2
Waxing Crescent
Sep 2
First Quarter
Sep 9
Full
Sep 16
Last Quarter
Sep 24
New

Hourly Weather History & Observations

Time (+0430) Temp. Dew Point Humidity Pressure Visibility Wind Dir Wind Speed Gust Speed Precip Events Conditions
12:25 AM 75.2 °F 15.8 °F 11% 29.71 in 6.2 mi Variable 2.3 mph - N/A   Clear
1:25 AM 71.6 °F 17.6 °F 13% 29.71 in 6.2 mi Variable 2.3 mph - N/A   Clear
2:25 AM 71.6 °F 15.8 °F 12% 29.71 in 6.2 mi Variable 3.5 mph - N/A   Clear
3:25 AM 71.6 °F 17.6 °F 13% 29.71 in 6.2 mi ESE 4.6 mph - N/A   Clear
4:25 AM 68.0 °F 19.4 °F 16% 29.74 in 6.2 mi Variable 2.3 mph - N/A   Clear
5:25 AM 68.0 °F 23.0 °F 18% 29.77 in 6.2 mi NE 5.8 mph - N/A   Partly Cloudy
6:25 AM 69.8 °F 21.2 °F 16% 29.77 in 4.3 mi ESE 3.5 mph - N/A   Clear
7:25 AM 75.2 °F 33.8 °F 22% 29.80 in 5.6 mi NE 8.1 mph - N/A   Clear
8:25 AM 84.2 °F 39.2 °F 20% 29.80 in 5.0 mi ENE 10.4 mph - N/A   Clear
9:25 AM 89.6 °F 37.4 °F 16% 29.83 in 5.0 mi NE 6.9 mph - N/A   Clear
10:25 AM 91.4 °F 35.6 °F 14% 29.83 in 5.0 mi North 4.6 mph - N/A   Clear
11:25 AM 95.0 °F 32.0 °F 11% 29.80 in 5.6 mi North 4.6 mph - N/A   Clear
12:25 PM 96.8 °F 30.2 °F 10% 29.80 in 6.2 mi ENE 8.1 mph - N/A   Partly Cloudy
1:25 PM 98.6 °F 23.0 °F 7% 29.74 in 6.2 mi NNW 8.1 mph - N/A   Partly Cloudy
2:25 PM 98.6 °F 24.8 °F 7% 29.74 in 6.2 mi NW 9.2 mph - N/A   Partly Cloudy
3:25 PM 98.6 °F 26.6 °F 8% 29.71 in 6.2 mi West 11.5 mph - N/A   Scattered Clouds
4:25 PM 98.6 °F 23.0 °F 7% 29.71 in 6.2 mi NW 12.7 mph - N/A   Scattered Clouds
5:25 PM 98.6 °F 23.0 °F 7% 29.71 in 6.2 mi WNW 9.2 mph - N/A   Scattered Clouds
6:25 PM 93.2 °F 26.6 °F 9% 29.71 in 6.2 mi WNW 12.7 mph - N/A   Partly Cloudy
7:25 PM 91.4 °F 21.2 °F 8% 29.74 in 6.2 mi West 12.7 mph - N/A   Clear
8:25 PM 87.8 °F 24.8 °F 10% 29.74 in 6.2 mi West 11.5 mph - N/A   Clear
9:25 PM 86.0 °F 24.8 °F 11% 29.77 in 6.2 mi SW 5.8 mph - N/A   Clear
10:25 PM 82.4 °F 24.8 °F 12% 29.77 in 5.6 mi Variable 3.5 mph - N/A   Clear
11:25 PM 80.6 °F 19.4 °F 10% 29.77 in 5.6 mi East 6.9 mph - N/A   Clear